User: anonymous   Login
Location: Eaton
(41.3139°N, 82.0207°W)
Time: 01:12:10
(UTC+00:00)
Language:

Cosmos 2285 Rocket - Orbit

View from above orbital plane
View from above orbital plane
View from above satellite
View from above satellite

Ground track
Ground track

The orbit data is extracted from the following two-line orbital elements,

1 23190U 94045B   21267.73894253  .00000041  00000-0  67110-4 0  9990
2 23190  74.0310  36.4785 0019061  19.1148 341.0683 13.74107823361322
Epoch (UTC): 24 September 2021 17:44:04
Eccentricity: 0.0019061
inclination: 74.0310°
perigee height: 971 km
apogee height: 999 km
right ascension of ascending node: 36.4785°
argument of perigee: 19.1148°
revolutions per day: 13.74107823
mean anomaly at epoch: 341.0683°
orbit number at epoch: 36132

The dashed part of the orbit path shows where the satellite is in the earth's shadow,  

DLR